Flag for Ukraine Weather past 2 weeks in Kyiv, Ukraine

Now
68 °F

Clear.


Feels Like: 68 °F
Forecast: 61 / 76 °F
Wind: 10 mph from Northeast

Location: Kyiv

Current Time: Sep 2, 2014 at 10:51:17 PM

Latest Report: Sep 2, 2014 at 10:00 PM


Visibility: 10 mi

Pressure: 30.07 "Hg

Humidity: 83%

Dew point: 63 °F

Location of KyivLocation

Historic Weather in Kyiv — Graph

°F

Kyiv temperature yesterday

Maximum temperature yesterday: 79 °F (at 1:00 PM)
Minimum temperature yesterday: 55 °F (at 1:30 AM)
Average temperature yesterday: 67 °F

Past Weeks' High & Low Weather Summary

 TemperatureHumidityPressure
High84 °F (Aug 20, 3:30 PM)100% (Aug 19, 2:00 AM)30.12 "Hg (Aug 19, 2:00 AM)
Low43 °F (Aug 26, 6:00 AM)34% (Sep 1, 1:30 PM)29.71 "Hg (Aug 24, 9:30 PM)
Average63 °F71%29.96 "Hg
* Reported Aug 18 10:00 PM — Sep 2 10:00 PM, Kyiv, Weather by CustomWeather, © 2014

Note: Actual official high and low records may vary slightly from our data, if they occured in-between our weather recording intervals... More about our weather records

Advertising

Kyiv weather history for previous 24 hours

 ConditionsComfort  
Time TempWeatherWind HumidityBarometerVisibility
10:00 PM
Sep 2
68 °FClear.10 mph83%30.07 "Hg10 mi
9:30 PM68 °FClear.13 mph83%30.07 "Hg10 mi
9:00 PM70 °FClear.15 mph73%30.07 "Hg10 mi
8:30 PM70 °FSunny.10 mph73%30.04 "Hg10 mi
8:00 PM72 °FSunny.10 mph65%30.04 "Hg10 mi
7:30 PM72 °FSunny.8 mph61%30.04 "Hg10 mi
7:00 PM73 °FSunny.8 mph57%30.01 "Hg10 mi
6:30 PM77 °FSunny.10 mph47%30.01 "Hg10 mi
6:00 PM79 °FSunny.8 mph45%30.01 "Hg10 mi
5:30 PM79 °FSunny.8 mph42%30.01 "Hg10 mi
5:00 PM79 °FPassing clouds.8 mph39%30.01 "HgN/A
4:30 PM79 °FSunny.8 mph45%30.01 "Hg10 mi
4:00 PM79 °FPassing clouds.8 mph42%30.01 "HgN/A
3:30 PM79 °FSunny.10 mph42%30.01 "Hg10 mi
3:00 PM79 °FPassing clouds.10 mph39%30.01 "HgN/A
2:30 PM79 °FPassing clouds.8 mph39%30.01 "HgN/A
2:00 PM79 °FPassing clouds.10 mph39%30.01 "HgN/A
1:30 PM79 °FPassing clouds.8 mph39%30.01 "HgN/A
1:00 PM77 °FPassing clouds.6 mph44%30.01 "HgN/A
12:30 PM77 °FSunny.8 mph42%30.01 "Hg10 mi
12:00 PM75 °FSunny.8 mph44%30.01 "Hg10 mi
11:30 AM75 °FPassing clouds.8 mph41%30.01 "HgN/A
11:00 AM73 °FSunny.3 mph44%30.01 "Hg10 mi
10:30 AM72 °FSunny.6 mph47%30.01 "Hg10 mi
10:00 AM72 °FPassing clouds.6 mph47%30.01 "HgN/A
9:30 AM72 °FSunny.3 mph47%30.01 "Hg10 mi
9:00 AM70 °FSunny.1 mph57%30.01 "Hg10 mi
8:30 AM66 °FSunny.No wind68%30.01 "Hg10 mi
8:00 AM61 °FSunny.1 mph83%30.01 "Hg10 mi
7:30 AM57 °FSunny.No wind82%30.01 "Hg10 mi
7:00 AM54 °FClear.No wind94%29.98 "Hg10 mi
6:30 AM52 °FClear.1 mph94%29.98 "Hg10 mi
5:30 AM50 °FClear.No wind100%29.98 "Hg10 mi
5:00 AM52 °FClear.No wind94%29.98 "Hg10 mi
4:30 AM54 °FClear.No wind94%29.98 "Hg10 mi
4:00 AM52 °FClear.1 mph94%29.98 "Hg10 mi
3:30 AM54 °FClear.3 mph88%29.98 "Hg10 mi
3:00 AM54 °FClear.1 mph94%29.98 "HgN/A
2:30 AM54 °FClear.No wind94%29.98 "HgN/A
2:00 AM55 °FClear.No wind88%29.98 "HgN/A
1:30 AM55 °FClear.No wind88%30.01 "Hg5 mi
1:00 AM55 °FClear.1 mph88%29.98 "HgN/A
12:30 AM57 °FClear.No wind77%29.98 "HgN/A
11:30 PM
Sep 1
57 °FClear.No wind82%29.98 "HgN/A
11:00 PM59 °FClear.1 mph77%29.98 "HgN/A
10:30 PM59 °FClear.No wind77%29.98 "Hg10 mi
10:00 PM59 °FClear.1 mph77%29.98 "Hg10 mi
Weather by CustomWeather, © 2014

See weather overviewHow to use our weather pages